Racecast

MHSAA D1 Regional 4-1 (Host: Brownstown Woodhaven)

Lake Erie Metro Park OFFICIAL · 5000m · Boys · Compiled · MI

93 runners from 1 division

These divisions were run separately. This is how their times compare, not how they finished — the places and scores below were never contested.

View full meet →

Team scores

Place Team Points 12345 67
1 Saline (MI) 26 1 3 6 7 9 17 24
2 Temperance Bedford (MI) 70 5 10 14 19 22 23 25
3 Wyandotte Roosevelt (MI) 114 15 18 26 27 28 29 30
4 Woodhaven Brownstown (MI) 128 2 4 31 44 47 60 65
5 Wayne Memorial (MI) 168 13 32 38 42 43 80 89
6 Dearborn Edsel Ford (MI) 184 8 20 21 66 69 73 86
7 Allen Park (MI) 194 12 39 40 48 55 56 61
8 Monroe (MI) 221 16 37 46 58 64 68 71
9 Dearborn (MI) 228 33 41 49 52 53 57 59
10 Belleville (MI) 228 11 35 50 62 70 72 84
11 Ypsilanti Lincoln (MI) 288 34 45 63 67 79 83
12 Southgate Anderson (MI) 316 36 54 74 75 77 82 85
13 Ypsilanti Community (MI) 373 51 76 78 81 87 88 90

Not scored, fewer than five finishers: Detroit Western International (2)

Results

Place Athlete Grade School Time Rating Points Actual race
1 Nick Renberg 12 Saline (MI) 1 17:03.5 121.3 1 1
2 Ahron Gunn 12 Woodhaven Brownstown (MI) 1 17:18.4 119.6 2 2
3 Spencer Bishop 12 Saline (MI) 2 17:22.1 119.1 3 3
4 Conrad Schultz 11 Woodhaven Brownstown (MI) 2 17:31.2 118.1 4 4
5 Adam Horace 12 Temperance Bedford (MI) 1 17:36.0 117.6 5 5
6 Logan Wetzel 9 Saline (MI) 3 17:38.7 117.3 6 6
7 Grant Praschan 11 Saline (MI) 4 17:39.6 117.2 7 7
8 Zine Nassr 11 Dearborn Edsel Ford (MI) 1 17:43.3 116.8 8 8
9 Anthony Lamus 11 Saline (MI) 5 17:44.8 116.6 9 9
10 Ben Crane 12 Temperance Bedford (MI) 2 17:45.0 116.6 10 10
11 Jake Long 12 Belleville (WI) 1 17:45.4 116.5 11 11
12 Jeremy Rafter 11 Allen Park (MI) 1 17:46.3 116.4 12 12
13 Daniel Malcolm 11 Wayne Memorial (MI) 1 17:46.8 116.4 13 13
14 James Nelson 11 Temperance Bedford (MI) 3 17:47.9 116.3 14 14
15 Drake Davis 12 Wyandotte Roosevelt (MI) 1 17:48.2 116.2 15 15
16 Derek Brodie 12 Monroe (CA) 1 17:52.4 115.8 16 16
17 Andrew Kitto 11 Saline (MI) 6 17:55.6 115.4 17 17
18 Cody Rowland 12 Wyandotte Roosevelt (MI) 2 17:59.8 115.0 18 18
19 Logan Smith 11 Temperance Bedford (MI) 4 18:00.2 114.9 19 19
20 Daniel Garza 11 Dearborn Edsel Ford (MI) 2 18:03.1 114.6 20 20
21 Murad Qassem 9 Dearborn Edsel Ford (MI) 3 18:09.2 114.0 21 21
22 Ben Wexler 11 Temperance Bedford (MI) 5 18:09.5 114.0 22 22
23 Adam Blaida 10 Temperance Bedford (MI) 6 18:13.5 113.5 23 23
24 Dylan Jennings 11 Saline (MI) 7 18:14.8 113.4 24 24
25 Jacob Nye 12 Temperance Bedford (MI) 7 18:16.0 113.3 25 25
26 Brendan Arthur 11 Wyandotte Roosevelt (MI) 3 18:27.5 112.1 26 26
27 Ryan Kusibab 11 Wyandotte Roosevelt (MI) 4 18:34.0 111.4 27 27
28 Daniel Balavitch 12 Wyandotte Roosevelt (MI) 5 18:34.5 111.4 28 28
29 Jake Coulter 10 Wyandotte Roosevelt (MI) 6 18:35.5 111.3 29 29
30 Alex Holmes 12 Wyandotte Roosevelt (MI) 7 18:36.6 111.2 30 30
31 Kris Childers 10 Woodhaven Brownstown (MI) 3 18:37.0 111.2 31 31
32 Devin Gibson 9 Wayne Memorial (MI) 2 18:37.4 111.1 32 32
33 Saleh Alkish 11 Dearborn (MI) 1 18:48.2 110.1 33 33
34 Brendan Pfeiffer 10 Ypsilanti Lincoln (MI) 1 18:52.0 109.7 34 34
35 matt Dziedzic 12 Belleville (WI) 2 18:56.0 109.3 35 35
36 Thomas Jozwiak 10 Southgate Anderson (MI) 1 19:02.3 108.7 36 36
37 Tony Simonton 12 Monroe (CA) 2 19:04.9 108.4 37 37
38 Michael Gibson 9 Wayne Memorial (MI) 3 19:08.2 108.1 38 38
39 Alec Keaton 9 Allen Park (MI) 2 19:17.9 107.2 39 39
40 Jason Obrycki-Smith 10 Allen Park (MI) 3 19:21.6 106.9 40 40
41 Samuel Mousigian 10 Dearborn (MI) 2 19:30.2 106.1 41 41
42 Zack Williams 10 Wayne Memorial (MI) 4 19:30.6 106.1 42 42
43 Tim Flores 10 Wayne Memorial (MI) 5 19:34.9 105.7 43 43
44 Kurtis Turner 12 Woodhaven Brownstown (MI) 4 19:36.3 105.6 44 44
45 Corey Crouch 12 Ypsilanti Lincoln (MI) 2 19:37.1 105.5 45 45
46 Sean Brady 10 Monroe (CA) 3 19:38.8 105.3 46 46
47 Dean Strawsine 11 Woodhaven Brownstown (MI) 5 19:39.9 105.2 47 47
48 Austin Goulasarian 9 Allen Park (MI) 4 19:40.5 105.2 48 48
49 Samuel Pilla 12 Dearborn (MI) 3 19:41.7 105.1 49 49
50 Chauncey Kilgo 11 Belleville (WI) 3 19:42.4 105.0 50 50
51 Jerrell McGee 12 Ypsilanti Community (MI) 1 19:44.7 104.8 51 51
52 Ryan Denison 12 Dearborn (MI) 4 19:48.4 104.5 52 52
53 Carlos Serratos 11 Dearborn (MI) 5 19:49.8 104.3 53 53
54 Connor Garcia 12 Southgate Anderson (MI) 2 19:50.6 104.3 54 54
55 Scott Povish 12 Allen Park (MI) 5 19:51.3 104.2 55 55
56 Anthony Carbonaro 12 Allen Park (MI) 6 19:52.2 104.1 56 56
57 Pressey Scott 12 Dearborn (MI) 6 19:56.1 103.8 57 57
58 Marc Bolay 12 Monroe (CA) 4 19:56.5 103.8 58 58
59 Joshua Blessing 11 Dearborn (MI) 7 20:02.8 103.2 59 59
60 Christian Ramirez 11 Woodhaven Brownstown (MI) 6 20:03.1 103.2 60 60
61 Nick Williams 12 Allen Park (MI) 7 20:08.7 102.7 61 61
62 Kenny Rubbet 11 Detroit Western International (MI) 1 20:10.2 102.6 62
63 Austin Koehler 10 Belleville (WI) 4 20:13.4 102.3 62 63
64 Michael Myles 11 Ypsilanti Lincoln (MI) 3 20:16.3 102.1 63 64
65 Adam Russell 10 Monroe (CA) 5 20:18.6 101.9 64 65
66 Robert Schultz 12 Woodhaven Brownstown (MI) 7 20:24.5 101.4 65 66
67 Jahaziel Gordon 10 Dearborn Edsel Ford (MI) 4 20:39.6 100.2 66 67
68 Joel Hyder 9 Ypsilanti Lincoln (MI) 4 20:40.1 100.1 67 68
69 Jackson Carey 12 Monroe (CA) 6 20:46.9 99.6 68 69
70 Manny Ortiz 9 Dearborn Edsel Ford (MI) 5 20:57.4 69 70
71 Mike Bond 12 Belleville (WI) 5 21:03.9 98.2 70 71
72 Timothy Laroy 12 Monroe (CA) 7 21:04.7 98.2 71 72
73 Austin Rohrback 10 Belleville (WI) 6 21:05.0 98.2 72 73
74 Mohamed Nasser 9 Dearborn Edsel Ford (MI) 6 21:07.7 97.9 73 74
75 Jacob Deibis 11 Southgate Anderson (MI) 3 21:10.8 97.7 74 75
76 Ethan Anderson 10 Southgate Anderson (MI) 4 21:19.4 97.0 75 76
77 Nicholas Carpenter 9 Ypsilanti Community (MI) 2 21:25.8 96.6 76 77
78 Tyler Knott 10 Southgate Anderson (MI) 5 21:39.0 95.6 77 78
79 Remel Davis 11 Ypsilanti Community (MI) 3 21:40.8 95.4 78 79
80 Alex Henry 10 Ypsilanti Lincoln (MI) 5 21:57.1 94.3 79 80
81 Avery Barron 12 Wayne Memorial (MI) 6 22:10.6 93.3 80 81
82 Malik Peacock 11 Ypsilanti Community (MI) 4 22:17.5 92.8 81 82
83 Steve Pochini 12 Southgate Anderson (MI) 6 22:18.5 92.8 82 83
84 Travis Brooks 12 Ypsilanti Lincoln (MI) 6 22:32.7 91.8 83 84
85 David Dale 9 Belleville (WI) 7 22:45.2 90.9 84 85
86 Ryan Owen 10 Southgate Anderson (MI) 7 23:09.2 89.4 85 86
87 Robuah Desantis 10 Dearborn Edsel Ford (MI) 7 23:20.7 88.6 86 87
88 Anthony Simmons 12 Ypsilanti Community (MI) 5 23:24.8 88.4 87 88
89 Tim Haertl 12 Ypsilanti Community (MI) 6 23:56.6 86.4 88 89
90 Jordan Whitehouse 9 Wayne Memorial (MI) 7 24:09.8 85.6 89 90
91 Elijah Cox 10 Ypsilanti Community (MI) 7 24:10.8 85.6 90 91
92 Aaron Green 12 Ypsilanti Community (MI) 8 24:58.9 82.8 92
93 Elza Harris 11 Detroit Western International (MI) 2 24:59.7 82.8 93